Marshall, MI

8:35 AM EDT on May 28, 2017 (GMT -0400)
Brooks

Weather History for KRMY - January, 2014

Change the Weather History Date:

Friday, January 3, 2014

  Actual Average (KBTL) Record (KBTL)
Temperature  
Mean Temperature -3 °F -  
Max Temperature 12 °F 30 °F 57 °F (2004)
Min Temperature -18 °F 18 °F -12 °F (2014)
Degree Days  
Heating Degree Days 68    
Moisture  
Dew Point -8 °F    
Average Humidity 67    
Maximum Humidity 88    
Minimum Humidity 50    
Precipitation  
Precipitation 0.00 in - - ()
Sea Level Pressure  
Sea Level Pressure 30.28 in    
Wind  
Wind Speed 4 mph (South)    
Max Wind Speed 16 mph    
Max Gust Speed 23 mph    
Visibility 10 miles    
Events      
Averages and records for this station are not official NWS values.
T = Trace of Precipitation, MM = Missing Value Source: NWS Daily Summary

Daily Weather History Graph

Daily Weather History Graph

Search for Another Location

Airport or City:

Trip Planner

Search our weather history database for the weather conditions in past years. The results will help you decide how hot, cold, wet, or windy it might be!

Date:

Astronomy

Jan. 03, 2014 Rise Set
Actual Time 8:08 AM EST 5:20 PM EST
Civil Twilight 7:37 AM EST 5:51 PM EST
Nautical Twilight 7:02 AM EST 6:27 PM EST
Astronomical Twilight 6:28 AM EST 7:01 PM EST
Moon 9:31 AM EST (1/3) 8:32 PM EST (1/3)
Length of Visible Light 10h 14m
Length of Day
9h 11m
Waxing Crescent, 8% of the Moon is Illuminated
Jan 3
Waxing Crescent
Jan 7
First Quarter
Jan 15
Full
Jan 24
Last Quarter
Jan 30
New

Hourly Weather History & Observations

Time (EST) Temp. Windchill Dew Point Humidity Pressure Visibility Wind Dir Wind Speed Gust Speed Precip Events Conditions
12:14 AM -1.8 °F - -7.8 °F 76% 30.30 in 10.0 mi Calm Calm - N/A   Clear
12:34 AM -3.5 °F - -8.7 °F 78% 30.29 in 10.0 mi Calm Calm - N/A   Clear
12:53 AM -2.7 °F - -8.0 °F 78% 30.29 in 10.0 mi Calm Calm - N/A   Clear
1:14 AM -4.4 °F - -9.0 °F 80% 30.28 in 10.0 mi Calm Calm - N/A   Clear
1:33 AM -7.2 °F -16.1 °F -11.0 °F 84% 30.29 in 10.0 mi West 3.5 mph - N/A   Clear
1:54 AM -9.4 °F -18.6 °F -13.9 °F 81% 30.29 in 10.0 mi West 3.5 mph - N/A   Clear
2:14 AM -9.8 °F - -13.5 °F 83% 30.31 in 10.0 mi Calm Calm - N/A   Clear
2:33 AM -9.2 °F - -12.6 °F 85% 30.32 in 10.0 mi Calm Calm - N/A   Clear
2:54 AM -9.0 °F - -12.5 °F 85% 30.32 in 10.0 mi Calm Calm - N/A   Clear
3:14 AM -11.4 °F - -14.3 °F 87% 30.33 in 10.0 mi Calm Calm - N/A   Clear
3:33 AM -9.6 °F - -12.3 °F 88% 30.34 in 10.0 mi Calm Calm - N/A   Clear
3:54 AM -15.0 °F - -18.9 °F 82% 30.34 in 10.0 mi Calm Calm - N/A   Clear
4:14 AM -13.4 °F - -17.0 °F 84% 30.34 in 10.0 mi Calm Calm - N/A   Clear
4:33 AM -13.7 °F -23.5 °F -18.2 °F 80% 30.34 in 10.0 mi West 3.5 mph - N/A   Clear
4:54 AM -15.0 °F - -19.1 °F 82% 30.35 in 10.0 mi Calm Calm - N/A   Clear
5:13 AM -14.8 °F - -18.9 °F 82% 30.35 in 10.0 mi Calm Calm - N/A   Clear
5:34 AM -11.0 °F - -14.4 °F 85% 30.35 in 10.0 mi Calm Calm - N/A   Clear
5:54 AM -15.7 °F - -19.8 °F 82% 30.35 in 10.0 mi Calm Calm - N/A   Clear
6:13 AM -15.0 °F - -19.3 °F 81% 30.36 in 10.0 mi Calm Calm - N/A   Clear
6:34 AM -16.8 °F - -21.3 °F 80% 30.36 in 10.0 mi Calm Calm - N/A   Clear
6:53 AM -17.3 °F - -22.0 °F 79% 30.36 in 10.0 mi Calm Calm - N/A   Clear
7:13 AM -18.4 °F - -23.1 °F 79% 30.37 in 10.0 mi Calm Calm - N/A   Clear
7:34 AM -15.0 °F - -19.3 °F 81% 30.36 in 10.0 mi Calm Calm - N/A   Clear
7:53 AM -16.6 °F - -21.5 °F 79% 30.37 in 3.0 mi Calm Calm - N/A   Haze
8:13 AM -16.4 °F - -21.3 °F 79% 30.37 in 10.0 mi Calm Calm - N/A   Clear
8:34 AM -14.4 °F - -19.1 °F 79% 30.39 in 1.0 mi Calm Calm - N/A   Mist
8:53 AM -11.4 °F - -15.3 °F 83% 30.39 in 10.0 mi Calm Calm - N/A   Clear
9:14 AM -7.1 °F - -11.2 °F 82% 30.40 in 10.0 mi North - - N/A   Clear
9:34 AM -6.5 °F - -11.2 °F 80% 30.40 in 10.0 mi Calm Calm - N/A   Clear
9:53 AM -4.2 °F - -8.7 °F 81% 30.39 in 10.0 mi Calm Calm - N/A   Clear
10:14 AM -0.4 °F -10.4 °F -5.6 °F 79% 30.39 in 10.0 mi SSW 4.6 mph - N/A   Clear
10:34 AM 2.1 °F -7.4 °F -4.5 °F 74% 30.39 in 10.0 mi SSW 4.6 mph - N/A   Clear
10:53 AM 4.1 °F -10.2 °F -5.4 °F 65% 30.40 in 10.0 mi SW 9.2 mph - N/A   Clear
11:14 AM 5.4 °F -7.6 °F -6.2 °F 59% 30.39 in 10.0 mi SSW 8.1 mph - N/A   Clear
11:34 AM 6.6 °F -7.1 °F -5.6 °F 57% 30.39 in 10.0 mi SSW 9.2 mph - N/A   Clear
11:53 AM 7.3 °F -7.1 °F -5.3 °F 56% 30.39 in 10.0 mi SSW 10.4 mph - N/A   Clear
12:14 PM 8.1 °F -3.2 °F -5.1 °F 55% 30.38 in 10.0 mi SSW 6.9 mph - N/A   Clear
12:34 PM 9.0 °F -5.1 °F -5.3 °F 53% 30.36 in 10.0 mi SSW 10.4 mph - N/A   Clear
12:53 PM 9.3 °F -3.8 °F -4.5 °F 54% 30.35 in 10.0 mi South 9.2 mph - N/A   Clear
1:14 PM 9.5 °F -2.6 °F -4.5 °F 53% 30.34 in 10.0 mi South 8.1 mph - N/A   Clear
1:34 PM 10.2 °F -2.7 °F -4.2 °F 52% 30.33 in 10.0 mi SSW 9.2 mph - N/A   Clear
1:53 PM 10.6 °F -3.1 °F -4.0 °F 52% 30.32 in 10.0 mi South 10.4 mph 16.1 mph N/A   Clear
2:14 PM 11.3 °F -3.6 °F -3.6 °F 51% 30.32 in 10.0 mi South 12.7 mph - N/A   Clear
2:34 PM 11.7 °F -0.9 °F -3.8 °F 50% 30.31 in 10.0 mi SSW 9.2 mph 16.1 mph N/A   Clear
2:53 PM 12.2 °F -1.0 °F -2.9 °F 51% 30.30 in 10.0 mi South 10.4 mph 16.1 mph N/A   Scattered Clouds
3:14 PM 12.0 °F -0.4 °F -2.7 °F 52% 30.28 in 10.0 mi South 9.2 mph - N/A   Mostly Cloudy
3:34 PM 11.5 °F -2.7 °F -3.1 °F 52% 30.27 in 10.0 mi South 11.5 mph 16.1 mph N/A   Overcast
3:53 PM 11.8 °F -0.7 °F -2.6 °F 53% 30.27 in 10.0 mi South 9.2 mph 17.3 mph N/A   Overcast
4:14 PM 12.2 °F -1.0 °F -2.4 °F 52% 30.27 in 10.0 mi South 10.4 mph - N/A   Overcast
4:34 PM 12.0 °F -3.4 °F -2.7 °F 52% 30.27 in 10.0 mi South 13.8 mph - N/A   Overcast
4:53 PM 11.8 °F -3.0 °F -2.7 °F 52% 30.24 in 10.0 mi South 12.7 mph 18.4 mph N/A   Overcast
5:14 PM 11.3 °F -4.9 °F -2.6 °F 54% 30.24 in 10.0 mi South 15.0 mph 18.4 mph N/A   Overcast
5:34 PM 10.8 °F -1.1 °F -2.7 °F 55% 30.23 in 10.0 mi South 8.1 mph - N/A   Mostly Cloudy
5:53 PM 10.4 °F -1.5 °F -2.7 °F 55% 30.23 in 10.0 mi South 8.1 mph - N/A   Mostly Cloudy
6:14 PM 10.4 °F -0.4 °F -2.4 °F 56% 30.23 in 10.0 mi SSE 6.9 mph - N/A   Overcast
6:33 PM 10.8 °F -2.0 °F -2.2 °F 56% 30.22 in 10.0 mi SSE 9.2 mph - N/A   Overcast
6:53 PM 10.8 °F -2.0 °F -2.2 °F 56% 30.21 in 10.0 mi SSE 9.2 mph - N/A   Overcast
7:14 PM 10.4 °F -4.1 °F -1.7 °F 58% 30.20 in 10.0 mi SSE 11.5 mph - N/A   Overcast
7:33 PM 10.4 °F -3.3 °F -1.3 °F 59% 30.20 in 10.0 mi South 10.4 mph - N/A   Overcast
7:53 PM 10.8 °F -2.8 °F -1.3 °F 58% 30.18 in 10.0 mi South 10.4 mph - N/A   Overcast
8:14 PM 10.9 °F -3.4 °F -0.6 °F 60% 30.17 in 10.0 mi SSE 11.5 mph 16.1 mph N/A   Mostly Cloudy
8:33 PM 11.1 °F -4.5 °F -0.4 °F 60% 30.15 in 10.0 mi SSE 13.8 mph 19.6 mph N/A   Scattered Clouds
8:53 PM 11.3 °F -2.2 °F -0.0 °F 60% 30.14 in 10.0 mi SSE 10.4 mph - N/A   Clear
9:14 PM 11.8 °F -1.5 °F 0.3 °F 60% 30.13 in 10.0 mi South 10.4 mph 20.7 mph N/A   Clear
9:33 PM 11.8 °F -3.6 °F 0.5 °F 60% 30.12 in 10.0 mi South 13.8 mph 19.6 mph N/A   Clear
9:54 PM 11.7 °F -0.9 °F 0.1 °F 60% 30.10 in 10.0 mi SSE 9.2 mph 17.3 mph N/A   Clear
10:14 PM 12.0 °F -2.0 °F 0.3 °F 59% 30.09 in 10.0 mi South 11.5 mph 18.4 mph N/A   Clear
10:33 PM 12.2 °F -2.5 °F 0.7 °F 60% 30.08 in 10.0 mi SSE 12.7 mph 20.7 mph N/A   Clear
10:54 PM 12.0 °F -4.5 °F 0.9 °F 61% 30.08 in 10.0 mi South 16.1 mph 21.9 mph N/A   Clear
11:14 PM 11.7 °F -3.2 °F 0.5 °F 61% 30.06 in 10.0 mi South 12.7 mph 20.7 mph N/A   Clear
11:33 PM 11.7 °F -5.0 °F 1.4 °F 63% 30.05 in 10.0 mi South 16.1 mph 23.0 mph N/A   Clear
11:54 PM 12.0 °F -4.0 °F 2.3 °F 65% 30.04 in 10.0 mi South 15.0 mph 21.9 mph N/A   Clear